H1 CPF 2 NER 2023 1 18 9 018 01 glonass143 H2 2007501 9143 46805 2023 1 18 0 0 0 2023 1 21 23 45 0 900 1 1 0 0 0 1 H9 10 0 59962 0.00000 0 -982662.669 19285617.516 -16666962.785 10 0 59962 900.00000 0 -1697948.457 21061137.945 -14293138.241 10 0 59962 1800.00000 0 -2169971.252 22595753.229 -11641732.911 10 0 59962 2700.00000 0 -2426757.936 23836125.462 -8764257.362 10 0 59962 3600.00000 0 -2506029.584 24737698.094 -5716603.630 10 0 59962 4500.00000 0 -2453355.110 25266522.309 -2557958.859 10 0 59962 5400.00000 0 -2319974.224 25400657.799 650344.866 10 0 59962 6300.00000 0 -2160382.502 25131089.346 3846021.956 10 0 59962 7200.00000 0 -2029781.337 24462120.910 6967042.589 10 0 59962 8100.00000 0 -1981501.177 23411230.853 9952836.103 10 0 59962 9000.00000 0 -2064507.459 22008394.516 12745465.049 10 0 59962 9900.00000 0 -2321094.999 20294902.644 15290747.019 10 0 59962 10800.00000 0 -2784868.606 18321725.178 17539302.647 10 0 59962 11700.00000 0 -3479095.486 16147488.689 19447509.839 10 0 59962 12600.00000 0 -4415499.349 13836151.782 20978346.064 10 0 59962 13500.00000 0 -5593547.571 11454475.013 22102103.012 10 0 59962 14400.00000 0 -7000262.237 9069390.183 22796960.312 10 0 59962 15300.00000 0 -8610563.954 6745377.901 23049407.635 10 0 59962 16200.00000 0 -10388135.251 4541961.679 22854507.377 10 0 59962 17100.00000 0 -12286768.789 2511421.912 22215992.941 10 0 59962 18000.00000 0 -14252145.361 696823.992 21146200.556 10 0 59962 18900.00000 0 -16223968.707 -869558.261 19665835.601 10 0 59962 19800.00000 0 -18138369.203 -2167359.038 17803577.333 10 0 59962 20700.00000 0 -19930476.852 -3188730.953 15595528.969 10 0 59962 21600.00000 0 -21537056.743 -3938424.692 13084522.988 10 0 59962 22500.00000 0 -22899096.982 -4433335.234 10319294.376 10 0 59962 23400.00000 0 -23964240.751 -4701534.283 7353537.309 10 0 59962 24300.00000 0 -24688960.184 -4780830.323 4244863.223 10 0 59962 25200.00000 0 -25040380.385 -4716917.645 1053680.398 10 0 59962 26100.00000 0 -24997676.250 -4561193.228 -2157982.899 10 0 59962 27000.00000 0 -24552982.715 -4368334.613 -5327688.418 10 0 59962 27900.00000 0 -23711779.493 -4193742.133 -8393806.959 10 0 59962 28800.00000 0 -22492733.570 -4090954.737 -11296721.904 10 0 59962 29700.00000 0 -20927005.691 -4109149.767 -13979993.190 10 0 59962 30600.00000 0 -19057049.715 -4290833.512 -16391458.506 10 0 59962 31500.00000 0 -16934955.163 -4669821.087 -18484249.804 10 0 59962 32400.00000 0 -14620402.413 -5269591.882 -20217705.215 10 0 59962 33300.00000 0 -12178316.132 -6102090.784 -21558158.714 10 0 59962 34200.00000 0 -9676315.075 -7167026.394 -22479592.371 10 0 59962 35100.00000 0 -7182064.555 -8451696.467 -22964138.959 10 0 59962 36000.00000 0 -4760641.665 -9931348.584 -23002425.616 10 0 59962 36900.00000 0 -2472022.605 -11570061.497 -22593752.336 10 0 59962 37800.00000 0 -368796.010 -13322110.835 -21746102.199 10 0 59962 38700.00000 0 1505803.449 -15133762.543 -20475983.418 10 0 59962 39600.00000 0 3119460.312 -16945419.451 -18808106.365 10 0 59962 40500.00000 0 4451878.502 -18694031.624 -16774901.865 10 0 59962 41400.00000 0 5495371.905 -20315669.969 -14415889.932 10 0 59962 42300.00000 0 6254922.078 -21748155.580 -11776911.131 10 0 59962 43200.00000 0 6747702.218 -22933634.871 -8909235.311 10 0 59962 44100.00000 0 7002088.803 -23820992.660 -5868564.897 10 0 59962 45000.00000 0 7056203.799 -24368001.955 -2713952.200 10 0 59962 45900.00000 0 6956050.090 -24543120.250 493348.148 10 0 59962 46800.00000 0 6753319.815 -24326856.818 3691069.177 10 0 59962 47700.00000 0 6502969.050 -23712653.559 6817140.527 10 0 59962 48600.00000 0 6260661.976 -22707242.317 9810892.699 10 0 59962 49500.00000 0 6080193.108 -21330463.605 12614233.100 10 0 59962 50400.00000 0 6010996.864 -19614554.185 15172770.945 10 0 59962 51300.00000 0 6095849.941 -17602933.165 17436869.362 10 0 59962 52200.00000 0 6368863.714 -15348537.059 19362604.645 10 0 59962 53100.00000 0 6853851.530 -12911772.980 20912614.396 10 0 59962 54000.00000 0 7563139.985 -10358174.776 22056818.749 10 0 59962 54900.00000 0 8496874.724 -7755859.018 22773001.236 10 0 59962 55800.00000 0 9642850.522 -5172885.963 23047238.485 10 0 59962 56700.00000 0 10976873.712 -2674634.248 22874170.826 10 0 59962 57600.00000 0 12463642.802 -321297.469 22257108.646 10 0 59962 58500.00000 0 14058111.534 1834394.269 21207972.326 10 0 59962 59400.00000 0 15707278.544 3749134.053 19747066.557 10 0 59962 60300.00000 0 17352329.845 5390598.529 17902692.799 10 0 59962 61200.00000 0 18931045.373 6738544.636 15710606.683 10 0 59962 62100.00000 0 20380369.534 7785397.767 13213330.104 10 0 59962 63000.00000 0 21639038.427 8536307.481 10459330.544 10 0 59962 63900.00000 0 22650153.584 9008669.046 7502083.066 10 0 59962 64800.00000 0 23363593.924 9231131.642 4399032.750 10 0 59962 65700.00000 0 23738164.048 9242135.677 1210477.646 10 0 59962 66600.00000 0 23743387.770 9088041.614 -2001605.828 10 0 59962 67500.00000 0 23360870.604 8820930.172 -5174771.780 10 0 59962 68400.00000 0 22585172.956 8496167.775 -8247323.948 10 0 59962 69300.00000 0 21424156.499 8169841.138 -11159520.519 10 0 59962 70200.00000 0 19898788.399 7896170.499 -13854740.546 10 0 59962 71100.00000 0 18042411.080 7725011.823 -16280588.732 10 0 59962 72000.00000 0 15899507.753 7699554.449 -18389916.568 10 0 59962 72900.00000 0 13524015.165 7854312.206 -20141739.824 10 0 59962 73800.00000 0 10977253.916 8213493.466 -21502034.595 10 0 59962 74700.00000 0 8325562.727 8789819.367 -22444396.606 10 0 59962 75600.00000 0 5637735.078 9583840.481 -22950551.403 10 0 59962 76500.00000 0 2982364.700 10583781.044 -23010705.949 10 0 59962 77400.00000 0 425210.029 11765917.684 -22623735.267 10 0 59962 78300.00000 0 -1973313.403 13095477.089 -21797200.902 10 0 59962 79200.00000 0 -4160409.184 14528015.327 -20547201.094 10 0 59962 80100.00000 0 -6092851.070 16011221.272 -18898055.738 10 0 59962 81000.00000 0 -7738528.840 17487068.846 -16881832.212 10 0 59962 81900.00000 0 -9077525.862 18894228.088 -14537721.169 10 0 59962 82800.00000 0 -10102684.702 20170634.062 -11911274.294 10 0 59962 83700.00000 0 -10819638.654 21256105.925 -9053518.650 10 0 59962 84600.00000 0 -11246309.325 22094906.184 -6019964.708 10 0 59962 85500.00000 0 -11411892.757 22638132.549 -2869527.387 10 0 59963 0.00000 0 -11355378.085 22845841.712 336618.566 10 0 59963 900.00000 0 -11123662.246 22688815.616 3536228.194 10 0 59963 1800.00000 0 -10769341.380 22149895.540 6667193.177 10 0 59963 2700.00000 0 -10348272.840 21224828.013 9668748.055 10 0 59963 3600.00000 0 -9917011.432 19922586.395 12482647.928 10 0 59963 4500.00000 0 -9530228.556 18265154.447 15054296.403 10 0 59963 5400.00000 0 -9238223.463 16286780.526 17333801.767 10 0 59963 6300.00000 0 -9084631.749 14032733.092 19276941.235 10 0 59963 7200.00000 0 -9104427.778 11557608.949 20846014.927 10 0 59963 8100.00000 0 -9322305.213 8923264.084 22010573.612 10 0 59963 9000.00000 0 -9751503.975 6196452.394 22748006.685 10 0 59963 9900.00000 0 -10393133.216 3446269.691 23043979.415 10 0 59963 10800.00000 0 -11236019.212 741508.142 22892711.407 10 0 59963 11700.00000 0 -12257085.234 -1851970.025 22297090.982 10 0 59963 12600.00000 0 -13422248.270 -4273731.463 21268623.173 10 0 59963 13500.00000 0 -14687795.952 -6471040.539 19827211.983 10 0 59963 14400.00000 0 -16002186.888 -8400804.662 18000780.544 10 0 59963 15300.00000 0 -17308199.789 -10031115.943 15824735.841 10 0 59963 16200.00000 0 -18545341.914 -11342325.697 13341287.590 10 0 59963 17100.00000 0 -19652416.175 -12327607.622 10598633.709 10 0 59963 18000.00000 0 -20570139.176 -12992986.657 7650027.652 10 0 59963 18900.00000 0 -21243699.924 -13356833.008 4552745.301 10 0 59963 19800.00000 0 -21625151.040 -13448843.238 1366971.334 10 0 59963 20700.00000 0 -21675531.038 -13308552.017 -1845373.031 10 0 59963 21600.00000 0 -21366627.349 -12983438.101 -5021837.761 10 0 59963 22500.00000 0 -20682304.791 -12526705.314 -8100663.136 10 0 59963 23400.00000 0 -19619342.499 -11994833.222 -11021985.770 10 0 59963 24300.00000 0 -18187743.131 -11445001.899 -13729007.422 10 0 59963 25200.00000 0 -16410500.443 -10932500.551 -16169103.253 10 0 59963 26100.00000 0 -14322834.329 -10508230.259 -18294847.495 10 0 59963 27000.00000 0 -11970924.783 -10216407.004 -20064936.390 10 0 59963 27900.00000 0 -9410197.297 -10092562.401 -21444990.515 10 0 59963 28800.00000 0 -6703230.959 -10161926.841 -22408221.052 10 0 59963 29700.00000 0 -3917376.187 -10438263.348 -22935947.495 10 0 59963 30600.00000 0 -1122180.813 -10923201.400 -23017957.182 10 0 59963 31500.00000 0 1613268.707 -11606098.783 -22652700.116 10 0 59963 32400.00000 0 4222981.099 -12464437.340 -21847315.696 10 0 59963 33300.00000 0 6646560.344 -13464736.034 -20617491.111 10 0 59963 34200.00000 0 8831468.882 -14563943.048 -18987154.263 10 0 59963 35100.00000 0 10734960.865 -15711248.531 -16988007.209 10 0 59963 36000.00000 0 12325606.123 -16850241.912 -14658909.039 10 0 59963 36900.00000 0 13584342.470 -17921323.182 -12045120.060 10 0 59963 37800.00000 0 14505013.796 -18864266.749 -9197421.809 10 0 59963 38700.00000 0 15094372.788 -19620830.004 -6171129.859 10 0 59963 39600.00000 0 15371549.520 -20137296.634 -3025018.644 10 0 59963 40500.00000 0 15367009.560 -20366847.459 179820.708 10 0 59963 41400.00000 0 15121046.672 -20271658.652 3381167.234 10 0 59963 42300.00000 0 14681874.619 -19824638.699 6516878.270 10 0 59963 43200.00000 0 14103399.481 -19010730.620 9526095.245 10 0 59963 44100.00000 0 13442767.090 -17827724.185 12350423.555 10 0 59963 45000.00000 0 12757789.559 -16286543.578 14935063.508 10 0 59963 45900.00000 0 12104359.699 -14410997.784 17229870.537 10 0 59963 46800.00000 0 11533962.435 -12237003.492 19190324.432 10 0 59963 47700.00000 0 11091388.003 -9811312.251 20778389.137 10 0 59963 48600.00000 0 10812743.079 -7189794.098 21963247.038 10 0 59963 49500.00000 0 10723843.354 -4435348.169 22721894.061 10 0 59963 50400.00000 0 10839055.077 -1615526.215 23039584.486 10 0 59963 51300.00000 0 11160634.256 1200033.344 22910117.289 10 0 59963 52200.00000 0 11678591.510 3942255.466 22335958.569 10 0 59963 53100.00000 0 12371088.654 6545253.611 21328197.618 10 0 59963 54000.00000 0 13205350.897 8948822.074 19906337.135 10 0 59963 54900.00000 0 14139057.079 11100692.900 18097921.102 10 0 59963 55800.00000 0 15122150.171 12958464.309 15938006.812 10 0 59963 56700.00000 0 16098992.592 14491121.040 13468490.527 10 0 59963 57600.00000 0 17010776.142 15680083.810 10737299.080 10 0 59963 58500.00000 0 17798085.295 16519744.510 7797462.535 10 0 59963 59400.00000 0 18403505.801 17017465.277 4706085.526 10 0 59963 60300.00000 0 18774168.244 17193042.007 1523237.075 10 0 59963 61200.00000 0 18864118.618 17077655.462 -1689219.296 10 0 59963 62100.00000 0 18636414.998 16712354.786 -4868832.047 10 0 59963 63000.00000 0 18064860.814 16146138.173 -7953780.702 10 0 59963 63900.00000 0 17135300.482 15433712.447 -10884082.984 10 0 59963 64800.00000 0 15846421.665 14633027.016 -13602765.940 10 0 59963 65700.00000 0 14210029.280 13802687.146 -16056977.638 10 0 59963 66600.00000 0 12250778.780 12999356.483 -18199017.320 10 0 59963 67500.00000 0 10005379.036 12275259.056 -19987263.789 10 0 59963 68400.00000 0 7521297.439 11675886.508 -21386984.002 10 0 59963 69300.00000 0 4855020.783 11238007.444 -22371006.306 10 0 59963 70200.00000 0 2069943.939 10988062.746 -22920245.642 10 0 59963 71100.00000 0 -766026.291 10941014.284 -23024070.968 10 0 59963 72000.00000 0 -3583052.860 11099695.229 -22680508.198 10 0 59963 72900.00000 0 -6312029.009 11454688.970 -21896275.143 10 0 59963 73800.00000 0 -8887207.768 11984741.458 -20686648.049 10 0 59963 74700.00000 0 -11248691.814 12657689.332 -19075162.487 10 0 59963 75600.00000 0 -13344681.096 13431864.593 -17093154.389 10 0 59963 76500.00000 0 -15133385.666 14257916.546 -14779150.057 10 0 59963 77400.00000 0 -16584524.995 15080974.168 -12178116.835 10 0 59963 78300.00000 0 -17680352.422 15843057.737 -9340588.862 10 0 59963 79200.00000 0 -18416163.077 16485637.922 -6321684.716 10 0 59963 80100.00000 0 -18800265.212 16952234.278 -3180036.101 10 0 59963 81000.00000 0 -18853417.378 17190943.332 23351.552 10 0 59963 81900.00000 0 -18607756.254 17156789.299 3226284.303 10 0 59963 82800.00000 0 -18105261.275 16813797.965 6366587.384 10 0 59963 83700.00000 0 -17395821.629 16136705.850 9383311.699 10 0 59963 84600.00000 0 -16534987.822 15112232.146 12217915.575 10 0 59963 85500.00000 0 -15581503.044 13739859.359 14815398.661 10 0 59964 0.00000 0 -14594718.754 12032089.285 17125365.964 10 0 59964 900.00000 0 -13632002.887 10014161.841 19103002.822 10 0 59964 1800.00000 0 -12746250.952 7723249.969 20709939.220 10 0 59964 2700.00000 0 -11983602.709 5207160.166 21914991.439 10 0 59964 3600.00000 0 -11381461.345 2522593.912 22694763.988 10 0 59964 4500.00000 0 -10966897.459 -266959.622 23034101.964 10 0 59964 5400.00000 0 -10755504.667 -3093613.103 22926385.210 10 0 59964 6300.00000 0 -10750754.628 -5887654.794 22373658.759 10 0 59964 7200.00000 0 -10943878.558 -8580200.795 21386596.929 10 0 59964 8100.00000 0 -11314280.323 -11105816.768 19984301.476 10 0 59964 9000.00000 0 -11830464.031 -13405001.253 18193937.138 10 0 59964 9900.00000 0 -12451437.506 -15426428.029 16050210.969 10 0 59964 10800.00000 0 -13128533.003 -17128854.919 13594704.785 10 0 59964 11700.00000 0 -13807568.806 -18482619.928 10875072.896 10 0 59964 12600.00000 0 -14431260.804 -19470662.620 7944120.143 10 0 59964 13500.00000 0 -14941782.257 -20089028.363 4858777.714 10 0 59964 14400.00000 0 -15283363.388 -20346834.655 1678996.447 10 0 59964 15300.00000 0 -15404820.434 -20265701.329 -1533420.643 10 0 59964 16200.00000 0 -15261906.475 -19878669.097 -4716023.592 10 0 59964 17100.00000 0 -14819383.703 -19228652.567 -7806934.449 10 0 59964 18000.00000 0 -14052728.468 -18366493.604 -10746055.521 10 0 59964 18900.00000 0 -12949395.943 -17348697.848 -13476242.715 10 0 59964 19800.00000 0 -11509589.873 -16234950.605 -15944420.592 10 0 59964 20700.00000 0 -9746503.882 -15085517.541 -18102616.880 10 0 59964 21600.00000 0 -7686023.144 -13958640.290 -19908896.196 10 0 59964 22500.00000 0 -5365897.922 -12908037.058 -21328174.781 10 0 59964 23400.00000 0 -2834422.803 -11980613.619 -22332900.589 10 0 59964 24300.00000 0 -148676.008 -11214480.911 -22903585.921 10 0 59964 25200.00000 0 2627608.505 -10637362.303 -23029182.698 10 0 59964 26100.00000 0 5426448.117 -10265457.025 -22707293.519 10 0 59964 27000.00000 0 8178198.320 -10102806.922 -21944214.847 10 0 59964 27900.00000 0 10814212.348 -10141192.514 -20754811.736 10 0 59964 28800.00000 0 13269463.689 -10360562.083 -19162226.694 10 0 59964 29700.00000 0 15485023.218 -10729975.151 -17197428.362 10 0 59964 30600.00000 0 17410288.685 -11209020.103 -14898608.635 10 0 59964 31500.00000 0 19004874.458 -11749645.823 -12310439.850 10 0 59964 32400.00000 0 20240083.663 -12298329.734 -9483206.266 10 0 59964 33300.00000 0 21099902.193 -12798490.505 -6471826.599 10 0 59964 34200.00000 0 21581473.946 -13193043.231 -3334786.628 10 0 59964 35100.00000 0 21695038.468 -13426988.945 -133002.650 10 0 59964 36000.00000 0 21463334.586 -13449928.687 3071361.969 10 0 59964 36900.00000 0 20920496.079 -13218395.633 6216103.896 10 0 59964 37800.00000 0 20110486.667 -12697906.358 9240186.913 10 0 59964 38700.00000 0 19085140.896 -11864644.189 12084925.431 10 0 59964 39600.00000 0 17901893.890 -10706703.129 14695121.289 10 0 59964 40500.00000 0 16621295.826 -9224839.272 17020131.926 10 0 59964 41400.00000 0 15304415.747 -7432697.285 19014849.475 10 0 59964 42300.00000 0 14010243.714 -5356501.545 20640572.110 10 0 59964 43200.00000 0 12793200.116 -3034223.697 21865751.319 10 0 59964 44100.00000 0 11700856.182 -514260.184 22666601.166 10 0 59964 45000.00000 0 10771960.791 2146326.380 23027558.169 10 0 59964 45900.00000 0 10034855.726 4883930.163 22941583.315 10 0 59964 46800.00000 0 9506345.279 7630802.480 22410300.518 10 0 59964 47700.00000 0 9191067.194 10317631.060 21443968.764 10 0 59964 48600.00000 0 9081391.036 12876192.256 20061288.210 10 0 59964 49500.00000 0 9157848.106 15241967.026 18289043.412 10 0 59964 50400.00000 0 9390074.836 17356612.656 16161589.984 10 0 59964 51300.00000 0 9738230.060 19170187.965 13720193.823 10 0 59964 52200.00000 0 10154826.539 20643039.712 11012234.993 10 0 59964 53100.00000 0 10586899.572 21747271.611 8090291.130 10 0 59964 54000.00000 0 10978421.030 22467734.760 5011117.748 10 0 59964 54900.00000 0 11272856.540 22802498.111 1834545.062 10 0 59964 55800.00000 0 11415757.187 22762779.391 -1377687.038 10 0 59964 56700.00000 0 11357275.370 22372339.624 -4563132.875 10 0 59964 57600.00000 0 11054497.453 21666367.096 -7659859.772 10 0 59964 58500.00000 0 10473493.495 20689898.201 -10607657.305 10 0 59964 59400.00000 0 9590996.228 19495842.253 -13349212.816 10 0 59964 60300.00000 0 8395637.184 18142694.060 -15831229.761 10 0 59964 61200.00000 0 6888686.641 16692031.195 -18005466.587 10 0 59964 62100.00000 0 5084265.098 15205901.802 -19829675.752 10 0 59964 63000.00000 0 3009016.243 13744213.175 -21268424.613 10 0 59964 63900.00000 0 701254.219 12362231.028 -22293782.361 10 0 59964 64800.00000 0 -1790380.116 11108294.392 -22885860.060 10 0 59964 65700.00000 0 -4408698.626 10021841.704 -23033193.727 10 0 59964 66600.00000 0 -7090107.546 9131830.379 -22732963.463 10 0 59964 67500.00000 0 -9767022.873 8455615.361 -21991044.806 10 0 59964 68400.00000 0 -12370459.676 7998332.846 -20821891.596 10 0 59964 69300.00000 0 -14832688.198 7752814.102 -19248252.812 10 0 59964 70200.00000 0 -17089846.906 7700032.034 -17300728.876 10 0 59964 71100.00000 0 -19084404.413 7810060.827 -15017175.967 10 0 59964 72000.00000 0 -20767368.273 8043507.477 -12441969.765 10 0 59964 72900.00000 0 -22100149.259 8353354.178 -9625142.760 10 0 59964 73800.00000 0 -23056003.995 8687133.236 -6621411.735 10 0 59964 74700.00000 0 -23620996.270 8989342.188 -3489114.342 10 0 59964 75600.00000 0 -23794437.625 9203996.614 -289075.462 10 0 59964 76500.00000 0 -23588789.489 9277212.299 2916574.491 10 0 59964 77400.00000 0 -23029031.734 9159707.196 6065606.064 10 0 59964 78300.00000 0 -22151524.917 8809116.983 9096898.447 10 0 59964 79200.00000 0 -21002414.644 8192025.916 11951624.717 10 0 59964 80100.00000 0 -19635645.600 7285626.739 14574391.497 10 0 59964 81000.00000 0 -18110669.026 6078939.037 16914311.026 10 0 59964 81900.00000 0 -16489939.980 4573533.927 18925985.108 10 0 59964 82800.00000 0 -14836309.361 2783733.790 20570382.168 10 0 59964 83700.00000 0 -13210419.681 736277.549 21815590.961 10 0 59964 84600.00000 0 -11668213.213 -1530535.762 22637436.865 10 0 59964 85500.00000 0 -10258656.228 -3968190.644 23019949.274 10 0 59965 0.00000 0 -9021773.923 -6519731.200 22955671.467 10 0 59965 900.00000 0 -7987076.890 -9121898.490 22445807.009 10 0 59965 1800.00000 0 -7172445.931 -11707538.107 21500199.989 10 0 59965 2700.00000 0 -6583519.054 -14208183.714 20137149.064 10 0 59965 3600.00000 0 -6213607.555 -16556706.748 18383058.378 10 0 59965 4500.00000 0 -6044143.644 -18689924.208 16271931.530 10 0 59965 5400.00000 0 -6045640.653 -20551056.301 13844717.601 10 0 59965 6300.00000 0 -6179125.188 -22091931.900 11148521.194 10 0 59965 7200.00000 0 -6397980.725 -23274849.783 8235691.233 10 0 59965 8100.00000 0 -6650124.570 -24074017.889 5162805.795 10 0 59965 9000.00000 0 -6880425.817 -24476510.226 1989572.447 10 0 59965 9900.00000 0 -7033261.584 -24482701.158 -1222334.293 10 0 59965 10800.00000 0 -7055102.578 -24106158.841 -4410475.507 10 0 59965 11700.00000 0 -6897017.725 -23373002.336 -7512866.493 10 0 59965 12600.00000 0 -6516990.791 -22320749.628 -10469187.000 10 0 59965 13500.00000 0 -5881949.910 -20996705.387 -13221958.876 10 0 59965 14400.00000 0 -4969423.009 -19455956.673 -15717667.640 10 0 59965 15300.00000 0 -3768748.093 -17759061.405 -17907805.629 10 0 59965 16200.00000 0 -2281786.191 -15969527.137 -19749816.208 10 0 59965 17100.00000 0 -523105.833 -14151186.360 -21207920.697 10 0 59965 18000.00000 0 1480369.707 -12365578.647 -22253812.059 10 0 59965 18900.00000 0 3690238.617 -10669449.291 -22867202.258 10 0 59965 19800.00000 0 6057984.477 -9112468.903 -23036213.114 10 0 59965 20700.00000 0 8526771.703 -7735268.899 -22757603.478 10 0 59965 21600.00000 0 11033598.428 -6567874.304 -22036828.765 10 0 59965 22500.00000 0 13511717.799 -5628598.440 -20887931.982 10 0 59965 23400.00000 0 15893227.415 -4923444.734 -19333268.514 10 0 59965 24300.00000 0 18111719.658 -4446039.481 -17403070.074 10 0 59965 25200.00000 0 20104883.083 -4178097.184 -15134856.157 10 0 59965 26100.00000 0 21816946.827 -4090397.805 -12572704.325 10 0 59965 27000.00000 0 23200866.558 -4144233.721 -9766393.335 10 0 59965 27900.00000 0 24220161.169 -4293264.488 -6770435.578 10 0 59965 28800.00000 0 24850323.796 -4485700.367 -3643017.670 10 0 59965 29700.00000 0 25079748.673 -4666721.696 -444869.810 10 0 59965 30600.00000 0 24910135.450 -4781031.237 2761914.049 10 0 59965 31500.00000 0 24356354.550 -4775431.087 5915081.956 10 0 59965 32400.00000 0 23445779.742 -4601314.700 8953432.092 10 0 59965 33300.00000 0 22217116.394 -4216968.171 11817999.646 10 0 59965 34200.00000 0 20718774.972 -3589583.134 14453199.224 10 0 59965 35100.00000 0 19006858.263 -2696895.732 16807900.766 10 0 59965 36000.00000 0 17142846.800 -1528381.921 18836418.297 10 0 59965 36900.00000 0 15191079.349 -85958.049 20499392.673 10 0 59965 37800.00000 0 13216133.633 1615843.697 21764551.719 10 0 59965 38700.00000 0 11280216.273 3550233.480 22607333.549 10 0 59965 39600.00000 0 9440670.440 5679041.892 23011361.456 10 0 59965 40500.00000 0 7747704.490 7954082.620 22968761.571 10 0 59965 41400.00000 0 6242435.567 10318944.341 22480317.340 10 0 59965 42300.00000 0 4955329.065 12711138.504 21555457.754 10 0 59965 43200.00000 0 3905098.290 15064514.870 20212079.341 10 0 59965 44100.00000 0 3098109.591 17311845.387 18476204.817 10 0 59965 45000.00000 0 2528317.245 19387469.604 16381484.398 10 0 59965 45900.00000 0 2177730.225 21229891.993 13968548.659 10 0 59965 46800.00000 0 2017390.790 22784223.192 11284224.774 10 0 59965 47700.00000 0 2008823.258 24004363.205 8380630.740 10 0 59965 48600.00000 0 2105891.460 24854835.136 5314164.748 10 0 59965 49500.00000 0 2256985.933 25312192.384 2144409.107 10 0 59965 50400.00000 0 2407447.822 25365939.907 -1067029.790 10 0 59965 51300.00000 0 2502126.220 25018930.595 -4257722.611 10 0 59965 52200.00000 0 2487959.797 24287219.830 -7365635.445 10 0 59965 53100.00000 0 2316472.507 23199384.261 -10330340.946 10 0 59965 54000.00000 0 1946076.639 21795333.469 -13094198.062 10 0 59965 54900.00000 0 1344084.701 20124664.615 -15603476.787 10 0 59965 55800.00000 0 488344.005 18244629.489 -17809405.544 10 0 59965 56700.00000 0 -631576.123 16217799.576 -19669120.596 10 0 59965 57600.00000 0 -2013695.612 14109527.287 -21146498.997 10 0 59965 58500.00000 0 -3643463.355 11985309.892 -22212859.024 10 0 59965 59400.00000 0 -5494133.019 9908166.419 -22847514.852 10 0 59965 60300.00000 0 -7527660.141 7936136.903 -23038175.127 10 0 59965 61200.00000 0 -9696083.741 6120008.032 -22781178.147 10 0 59965 62100.00000 0 -11943335.463 4501359.369 -22081559.518 10 0 59965 63000.00000 0 -14207401.483 3111010.777 -20952951.288 10 0 59965 63900.00000 0 -16422747.485 1967934.779 -19417314.679 10 0 59965 64800.00000 0 -18522906.167 1078678.002 -17504511.679 10 0 59965 65700.00000 0 -20443119.814 437314.551 -15251723.689 10 0 59965 66600.00000 0 -22122927.951 25931.913 -12702728.416 10 0 59965 67500.00000 0 -23508592.416 -184372.350 -9907048.878 10 0 59965 68400.00000 0 -24555258.723 -232026.266 -6918990.867 10 0 59965 69300.00000 0 -25228763.516 -163114.263 -3796587.619 10 0 59965 70200.00000 0 -25507012.681 -29182.917 -600472.172 10 0 59965 71100.00000 0 -25380872.603 115184.859 2607300.551 10 0 59965 72000.00000 0 -24854537.412 214924.002 5764458.769 10 0 59965 72900.00000 0 -23945357.100 217061.289 8809722.397 10 0 59965 73800.00000 0 -22683133.931 73199.790 11683991.503 10 0 59965 74700.00000 0 -21108916.852 -258191.630 14331491.425 10 0 59965 75600.00000 0 -19273344.543 -809780.945 16700852.427 10 0 59965 76500.00000 0 -17234606.458 -1603752.489 18746103.191 10 0 59965 77400.00000 0 -15056107.037 -2650632.228 20427559.154 10 0 59965 78300.00000 0 -12803930.352 -3948608.962 21712589.000 10 0 59965 79200.00000 0 -10544210.514 -5483380.900 22576244.959 10 0 59965 80100.00000 0 -8340516.918 -7228535.095 23001745.184 10 0 59965 81000.00000 0 -6251362.484 -9146445.121 22980799.223 10 0 59965 81900.00000 0 -4327937.839 -11189650.832 22513770.531 10 0 59965 82800.00000 0 -2612164.986 -13302663.907 21609672.783 10 0 59965 83700.00000 0 -1135150.647 -15424125.174 20285999.858 10 0 59965 84600.00000 0 83897.093 -17489224.907 18568392.239 10 0 59965 85500.00000 0 1038244.310 -19432286.014 16490145.690 99